Regional Weather Roundup
Issued by NWS Charleston, SC

Current Version | Previous Version | Graphics & Text | Print | Product List | Glossary On
Versions: 1 2 3 4 5 6 7 8 9 10 11 12 13 14 15 16 17 18 19 20 21 22 23 24 25 26 27 28 29 30 31 32 33 34 35 36 37 38 39 40 41 42 43 44 45 46 47 48 49 50
002
ASUS42 KCHS 230927
RWRCHS

REGIONAL WEATHER ROUNDUP
NATIONAL WEATHER SERVICE CHARLESTON SC
400 AM EST MON JAN 23 2017

NOTE: "FAIR" INDICATES FEW OR NO CLOUDS BELOW 12,000 FEET WITH NO
SIGNIFICANT WEATHER AND/OR OBSTRUCTIONS TO VISIBILITY.

NOT ALL STATIONS ARE QUALITY CONTROLLED. USE DATA WITH CAUTION...
ESPECIALLY DEWPOINT OBSERVATIONS.

SCZ027-030-031-034>040-042>050-231000-
...SOUTHEAST SOUTH CAROLINA...

CITY           SKY/WX    TMP DP  RH WIND       PRES   REMARKS
N CHARLESTON   CLEAR     52  47  83 SW3       29.31F
WATERFRONT PRK   N/A     56  51  84 VRB3      29.31F
MOUNT PLEASANT FAIR      54  48  82 CALM      29.31F
JOHNS ISLAND   FAIR      52  50  93 CALM      29.31F
PINOPOLIS        N/A     55  52  88 SW8       29.22F
MONCKS CORNER  FAIR      50  46  87 CALM      29.29F
SUMMERVILLE    FAIR      52  52 100 SE3       29.30F
BEAUFORT MCAS  CLEAR     53  49  86 S6        29.30F
BEAUFORT ARPT  FAIR      54  50  87 S7        29.31S
HILTON HEAD IS CLEAR     54  52  94 SW9       29.32F
WALTERBORO     SUNNY     50  46  87 S5        29.30F
ALLENDALE      FAIR      52  50  93 CALM      29.27F

...SOUTHERN MIDLANDS AND PEE DEE...

CITY           SKY/WX    TMP DP  RH WIND       PRES   REMARKS
GEORGETOWN     FAIR      52  48  87 SW7       29.32S
KINGSTREE      FAIR      52  46  82 CALM      29.28F
ORANGEBURG     PTCLDY    51  48  89 SW6       29.28F
BARNWELL       FAIR      52  50  93 S5        29.27F
AIKEN          FAIR      48  45  87 SW9       29.27F
MANNING        FAIR      52  36  54 SW6       29.28F
COLUMBIA       PTCLDY    52  47  83 S5        29.25F
SUMTER         CLEAR     51  47  84 SW8       29.24F
FLORENCE       PTCLDY    55  49  80 SW10G21   29.26S
MYRTLE BEACH   CLEAR     55  46  71 W12G20    29.31R
N MYRTLE BEACH CLEAR     57  49  74 SW17G29   29.27R

$$

GAZ063-065-086>088-099>101-113>116-118-119-134>141-150-231000-
...SOUTHEAST GEORGIA...

CITY           SKY/WX    TMP DP  RH WIND       PRES   REMARKS
SAVANNAH ARPT  CLEAR     54  48  80 SW12      29.32F
HUNTER AAF     CLEAR     54  52  95 SW9       29.30F
FORT STEWART   CLEAR     55  48  77 SW8       29.31F
STATESBORO     PTCLDY    55  51  87 SW6       29.29F
SYLVANIA       MOSUNNY  N/A N/A N/A SW5       29.29F
CLAXTON        FAIR     N/A N/A N/A S6        29.31F

...CSRA...CENTRAL AND FAR SOUTHEAST GEORGIA...

CITY           SKY/WX    TMP DP  RH WIND       PRES   REMARKS
THOMSON        CLOUDY    53  50  90 SW5       29.28F
AUGUSTA-BUSH   PTCLDY    51  46  83 S6        29.26F
AUGUSTA-DANIEL PTCLDY    52  45  77 S8        29.26F
SWAINSBORO     FAIR      52  48  87 SW7       29.28F
VIDALIA        CLEAR     54  52  94 SW9       29.30F
EASTMAN        FAIR      54  40  60 SW6       29.31F
HAZLEHURST     FAIR      55  51  87 SW9       29.30F
ALMA           CLEAR     52  50  93 S5        29.34F
WAYCROSS       CLEAR     55  55 100 SW8       29.36F
JESUP          FAIR      54  48  82 SW3       29.35F
BAXLEY         FAIR      54  54 100 S5        29.32F
BRUNSWICK      CLEAR     55  54  94 SW9       29.37F
SAINT SIMONS   CLEAR     57  52  83 SW13      29.37F

$$

SCZ027-028-034-036>038-045-046-048>050-GAZ119-141-231000-
...LAKE AND SUPPLEMENTAL COASTAL OBSERVATIONS...

STATION/POSITION TIME  TEMP    WIND        PRES    WAVE   SWELL
                       AIR SEA DIR/SP/G            HT/PER HT/PER/DIR
                 (UTC) (F)     (DEG/KT/KT) (MB)    (FT/S) (FT/S/D)
WINYAH BAY       0830   56     260/  9      992.0S
LAKE MURRAY      0920   53     220/ 10/ 13  989.8F
ACE BASIN NERRS  0845   53        CALM      993.0S
FORT PULASKI     0900   56 59  250/  9/ 13  993.0
SAPELO ISLAND    0900   57     220/ 12      994.0

$$

ANZ835-935-AMZ111-154-330-350-352-354-370-450-454-472-231000-
...C-MAN AND BUOY OBSERVATIONS...

STATION/POSITION TIME  TEMP    WIND        PRES    WAVE   SWELL
                       AIR SEA DIR/SP/G            HT/PER HT/PER/DIR
                 (UTC) (F)     (DEG/KT/KT) (MB)    (FT/S) (FT/S/D)
BUOY 41004       0850   63 65  260/ 21/ 27  992.3S  10/ 8
BUOY 41008       0850   60 60  220/ 19/ 23  993.0F   5/ 7   2/ 90/13
FOLLY BEACH CMAN 0900   56     230/  7/  9  993.2F
CAPERS NEARSHORE 0908   57 56  270/ 10/ 16  992.3F
FRIPP NEARSHORE  0908   59 58  230/ 14/ 17  992.7F


STATION/POSITION TIME  TEMP    WIND        PRES    WAVE   SWELL
                       AIR SEA DIR/SP/G            HT/PER HT/PER/DIR
                 (UTC) (F)     (DEG/KT/KT) (MB)    (FT/S) (FT/S/D)
5E ST. MARYS GA  0900      62                N/A     3/ 6   2/100/13
FRYING PAN BUOY  0910   64 69  230/ 27/ 33  992.0
BUOY 41025       0850   72 72  160/ 23/ 31  992.8F   6/ 8   3/170/ 8
CAPE LOOKOUT NC  0900   63     190/ 26/ 31  990.7F
BUOY 41002       0850   74 71  180/ 27/ 33  996.3F  13/ 9   7/ 40/13
BUOY 41010       NOT AVBL
ST AUGUSTINE FL  0900   59 65  250/  7/  8  997.6F


$$




USA.gov is the U.S. government's official web portal to all federal, state and local government web resources and services.